This demonstration page uses our WeatherBlox Daily Observations layout. Learn more.

Left ArrowRight Arrow

Hourly Observations for January 25, 2018

Temp ( °F °C ) Dew Point ( °F °C ) Humidity (%) Winds ( mph kmh ) Pressure ( in mb ) Visibility ( mi km ) Precip ( " mm )
12:56 am 00:56 Clear 28 -2.2 24 -4.4 85 85 WNW 3 6 30.13 1020 10 16 0.00 0.00
1:56 am 01:56 Clear 25 -3.9 23 -5 92 92 NNW 3 6 30.11 1020 10 16 0.00 0.00
2:56 am 02:56 Clear 23 -5 20 -6.7 88 88 NNW 3 6 30.11 1020 10 16 0.00 0.00
3:56 am 03:56 Clear 24 -4.4 22 -5.6 91 91 SW 5 7 30.10 1019 10 16 0.00 0.00
4:56 am 04:56 Clear 23 -5 21 -6.1 92 92 Calm 30.07 1018 10 16 0.00 0.00
5:56 am 05:56 Clear 24 -4.4 22 -5.6 91 91 S 10 17 30.08 1019 10 16 0.00 0.00
6:56 am 06:56 Clear 24 -4.4 21 -6.1 88 88 SW 6 9 30.07 1018 10 16 0.00 0.00
7:56 am 07:56 Sunny 24 -4.4 21 -6.1 88 88 SW 5 7 30.08 1019 10 16 0.00 0.00
8:56 am 08:56 Sunny 29 -1.7 25 -3.9 85 85 Calm 30.06 1018 10 16 0.00 0.00
9:56 am 09:56 Sunny 34 1.1 25 -3.9 70 70 SSW 7 11 30.06 1018 10 16 0.00 0.00
10:56 am 10:56 Sunny 34 1.1 27 -2.8 76 76 S 7 11 30.04 1017 10 16 0.00 0.00
11:56 am 11:56 Sunny 39 3.9 30 -1.1 70 70 SSW 8 13 30.01 1016 10 16 0.00 0.00
12:56 pm 12:56 Sunny 46 7.8 33 0.6 61 61 SSW 7 11 29.96 1014 10 16 0.00 0.00
1:56 pm 13:56 Sunny 49 9.4 33 0.6 55 55 S 12 19 29.91 1013 10 16 0.00 0.00
2:56 pm 14:56 Sunny 48 8.9 31 -0.6 52 52 S 18 30 29.89 1012 10 16 0.00 0.00
3:56 pm 15:56 Sunny 47 8.3 30 -1.1 52 52 S 16 26 29.89 1012 10 16 0.00 0.00
4:56 pm 16:56 Sunny 45 7.2 31 -0.6 58 58 S 10 17 29.87 1011 10 16 0.00 0.00
5:56 pm 17:56 Clear 40 4.4 29 -1.7 65 65 SSE 7 11 29.85 1011 10 16 0.00 0.00
6:56 pm 18:56 Clear 39 3.9 27 -2.8 62 62 S 8 13 29.84 1011 10 16 0.00 0.00
7:56 pm 19:56 Clear 46 7.8 24 -4.4 42 42 S 16 26 29.81 1009 10 16 0.00 0.00
8:56 pm 20:56 Clear 46 7.8 26 -3.3 46 46 S 22 35 29.79 1009 10 16 0.00 0.00
9:56 pm 21:56 Clear 47 8.3 25 -3.9 42 42 S 24 39 29.78 1008 10 16 0.00 0.00
10:56 pm 22:56 Clear 45 7.2 24 -4.4 44 44 S 24 39 29.77 1008 10 16 0.00 0.00
11:56 pm 23:56 Clear 43 6.1 24 -4.4 47 47 SSW 20 31 29.78 1008 10 16 0.00 0.00

Powered by AerisWeather